CW2303 Weather Reports


Display with metric or nautical units.
time (UTC)temp
F
wind
direction
speed
MPH
gust
MPH
rain 1hr
in
rain 24hr
in
rain mn
in
humidity
%
barometer
mb
20220625052506 78 128 4.0 10.0 0.00 0.00 0.00 68 1014.8
20220625052006 78 124 4.0 11.0 0.00 0.00 0.00 68 1014.8
20220625051506 78 125 3.0 11.0 0.00 0.00 0.00 68 1014.8
20220625051006 78 125 3.0 10.0 0.00 0.00 0.00 68 1014.8
20220625050506 78 125 4.0 8.0 0.00 0.00 0.00 68 1014.9
20220625050007 79 124 3.0 9.0 0.00 0.00 0.00 68 1014.8
20220625045506 78 123 3.0 9.0 0.00 0.00 0.00 68 1015.0
20220625045006 79 128 4.0 11.0 0.00 0.00 0.00 68 1014.9
20220625044506 79 132 4.0 11.0 0.00 0.00 0.00 68 1014.9
20220625044008 79 131 4.0 9.0 0.00 0.00 0.00 68 1014.9
20220625043506 79 130 3.0 9.0 0.00 0.00 0.00 68 1014.9
20220625043006 79 129 3.0 7.0 0.00 0.00 0.00 68 1014.9
20220625042506 79 125 3.0 8.0 0.00 0.00 0.00 68 1015.0
20220625042006 79 127 3.0 8.0 0.00 0.00 0.00 68 1015.0
20220625041506 79 126 2.0 7.0 0.00 0.00 0.00 68 1015.0
20220625041006 79 124 2.0 6.0 0.00 0.00 0.00 68 1015.0
20220625040507 79 125 2.0 7.0 0.00 0.00 0.00 68 1015.0
20220625040006 79 126 2.0 7.0 0.00 0.00 0.00 68 1015.0
20220625035506 80 128 2.0 7.0 0.00 0.00 0.00 67 1015.0
20220625035006 80 130 3.0 7.0 0.00 0.00 0.00 67 1014.9
20220625034506 80 130 3.0 7.0 0.00 0.00 0.00 67 1014.9
20220625034007 80 129 3.0 10.0 0.00 0.00 0.00 67 1015.0
20220625033507 80 128 3.0 10.0 0.00 0.00 0.00 67 1014.9
20220625033006 80 127 3.0 9.0 0.00 0.00 0.00 67 1014.9
20220625032506 80 127 2.0 9.0 0.00 0.00 0.00 67 1014.9
20220625032006 80 123 1.0 3.0 0.00 0.00 0.00 68 1014.9
20220625031506 80 121 1.0 3.0 0.00 0.00 0.00 68 1014.9
20220625031006 80 124 1.0 4.0 0.00 0.00 0.00 68 1014.8
20220625030506 80 130 1.0 6.0 0.00 0.00 0.00 68 1014.8
20220625030006 81 131 1.0 6.0 0.00 0.00 0.00 67 1014.7
20220625025506 81 128 1.0 4.0 0.00 0.00 0.00 67 1014.7
20220625025006 81 129 1.0 6.0 0.00 0.00 0.00 67 1014.7
20220625024506 81 130 1.0 6.0 0.00 0.00 0.00 67 1014.6
20220625024007 81 132 1.0 4.0 0.00 0.00 0.00 67 1014.5
20220625023507 81 131 1.0 4.0 0.00 0.00 0.00 67 1014.5
20220625023006 82 126 1.0 5.0 0.00 0.00 0.00 67 1014.5
20220625022507 82 128 1.0 5.0 0.00 0.00 0.00 67 1014.5
20220625022009 82 126 1.0 4.0 0.00 0.00 0.00 67 1014.4
20220625021507 82 125 1.0 4.0 0.00 0.00 0.00 66 1014.4
20220625021007 82 125 1.0 5.0 0.00 0.00 0.00 66 1014.3
20220625020508 82 123 2.0 5.0 0.00 0.00 0.00 66 1014.3
20220625020007 82 123 1.0 5.0 0.00 0.00 0.00 66 1014.3
20220625015505 83 126 1.0 6.0 0.00 0.00 0.00 66 1014.3
20220625015008 83 127 1.0 6.0 0.00 0.00 0.00 65 1014.3
20220625014506 83 129 2.0 5.0 0.00 0.00 0.00 66 1014.2
20220625014006 83 130 2.0 5.0 0.00 0.00 0.00 66 1014.2
20220625013509 84 128 1.0 4.0 0.00 0.00 0.00 66 1014.3
20220625013006 84 129 1.0 4.0 0.00 0.00 0.00 65 1014.2
20220625012506 84 130 1.0 3.0 0.00 0.00 0.00 65 1014.2
20220625012008 84 130 1.0 4.0 0.00 0.00 0.00 64 1014.2
20220625011505 84 130 1.0 4.0 0.00 0.00 0.00 64 1014.1
20220625011007 85 129 1.0 5.0 0.00 0.00 0.00 64 1014.1
20220625010508 85 130 1.0 5.0 0.00 0.00 0.00 63 1014.1
20220625010007 85 130 1.0 5.0 0.00 0.00 0.00 63 1014.1
20220625005507 85 127 1.0 5.0 0.00 0.00 0.00 63 1014.1
20220625005008 86 126 1.0 5.0 0.00 0.00 0.00 63 1014.1
20220625004506 86 128 1.0 5.0 0.00 0.00 0.00 63 1014.1
20220625004006 86 128 1.0 4.0 0.00 0.00 0.00 63 1014.0
20220625003507 86 134 2.0 5.0 0.00 0.00 0.00 63 1014.1
20220625003006 87 134 1.0 5.0 0.00 0.00 0.00 62 1014.0
20220625002507 87 127 1.0 6.0 0.00 0.00 0.00 62 1014.0
20220625002007 87 131 2.0 6.0 0.00 0.00 0.00 61 1014.0
20220625001506 87 131 3.0 9.0 0.00 0.00 0.00 60 1014.1
20220625001005 88 129 3.0 9.0 0.00 0.00 0.00 59 1014.1
20220625000509 88 131 3.0 9.0 0.00 0.00 0.00 59 1014.1
20220625000006 88 132 3.0 9.0 0.00 0.00 0.00 60 1014.1
20220624235506 88 132 4.0 10.0 0.00 0.00 0.00 60 1014.2
20220624235008 88 129 3.0 10.0 0.00 0.00 0.00 59 1014.2
20220624234506 89 127 3.0 9.0 0.00 0.00 0.00 59 1014.2
20220624234005 89 129 3.0 9.0 0.00 0.00 0.00 58 1014.2
20220624233506 89 133 3.0 10.0 0.00 0.00 0.00 59 1014.3
20220624233006 89 132 4.0 10.0 0.00 0.00 0.00 58 1014.2
20220624232506 90 130 4.0 8.0 0.00 0.00 0.00 58 1014.2
20220624232006 90 131 3.0 8.0 0.00 0.00 0.00 57 1014.2
20220624231506 90 132 3.0 8.0 0.00 0.00 0.00 57 1014.2
20220624231006 90 126 3.0 8.0 0.00 0.00 0.00 57 1014.2
20220624230506 91 119 3.0 9.0 0.00 0.00 0.00 56 1014.2
20220624230006 91 125 3.0 9.0 0.00 0.00 0.00 57 1014.2
20220624225506 91 132 3.0 11.0 0.00 0.00 0.00 59 1014.2
20220624225006 91 128 3.0 11.0 0.00 0.00 0.00 57 1014.2
20220624224506 91 130 3.0 7.0 0.00 0.00 0.00 56 1014.2
20220624224005 91 133 3.0 8.0 0.00 0.00 0.00 55 1014.2
20220624223507 91 131 4.0 9.0 0.00 0.00 0.00 56 1014.2
20220624223006 91 131 4.0 9.0 0.00 0.00 0.00 56 1014.3
20220624222506 92 134 3.0 7.0 0.00 0.00 0.00 55 1014.3
20220624222006 92 134 3.0 7.0 0.00 0.00 0.00 55 1014.3
20220624221505 92 129 3.0 8.0 0.00 0.00 0.00 56 1014.3
20220624221005 92 129 3.0 8.0 0.00 0.00 0.00 55 1014.3
20220624220505 92 130 2.0 7.0 0.00 0.00 0.00 53 1014.4
20220624220007 92 125 2.0 8.0 0.00 0.00 0.00 55 1014.5
20220624215507 92 124 1.0 8.0 0.00 0.00 0.00 54 1014.5
20220624215007 91 135 1.0 5.0 0.00 0.00 0.00 57 1014.6
20220624214506 90 137 1.0 5.0 0.00 0.00 0.00 57 1014.7
20220624214006 90 135 2.0 4.0 0.00 0.00 0.00 58 1014.7
20220624213507 90 120 2.0 5.0 0.00 0.00 0.00 58 1014.7
20220624213006 91 121 2.0 5.0 0.00 0.00 0.00 56 1014.7
20220624212506 91 130 2.0 5.0 0.00 0.00 0.00 56 1014.8
20220624212009 91 128 2.0 6.0 0.00 0.00 0.00 56 1014.8
20220624211506 91 134 3.0 9.0 0.00 0.00 0.00 55 1014.8
20220624211005 92 135 3.0 9.0 0.00 0.00 0.00 55 1014.8
20220624210508 92 130 2.0 7.0 0.00 0.00 0.00 57 1014.9
20220624210006 92 138 1.0 7.0 0.00 0.00 0.00 55 1014.8
20220624205506 91 139 1.0 6.0 0.00 0.00 0.00 55 1014.8
20220624205009 91 134 2.0 8.0 0.00 0.00 0.00 57 1014.9
20220624204506 92 134 2.0 8.0 0.00 0.00 0.00 55 1014.9
20220624204006 92 131 1.0 5.0 0.00 0.00 0.00 57 1014.9
20220624203508 91 126 2.0 7.0 0.00 0.00 0.00 55 1015.0
20220624203005 92 127 3.0 9.0 0.00 0.00 0.00 55 1015.1
20220624202507 92 134 3.0 9.0 0.00 0.00 0.00 58 1015.1
20220624202009 91 147 2.0 9.0 0.00 0.00 0.00 57 1015.1
20220624201506 91 138 2.0 8.0 0.00 0.00 0.00 58 1015.1
20220624201006 91 128 1.0 5.0 0.00 0.00 0.00 57 1015.1
20220624200508 91 139 2.0 5.0 0.00 0.00 0.00 56 1015.1
20220624200006 91 133 2.0 7.0 0.00 0.00 0.00 59 1015.2
20220624195507 91 130 2.0 7.0 0.00 0.00 0.00 56 1015.2
20220624195009 91 137 2.0 8.0 0.00 0.00 0.00 54 1015.3
20220624194506 92 136 1.0 8.0 0.00 0.00 0.00 55 1015.4
20220624194006 92 126 1.0 5.0 0.00 0.00 0.00 58 1015.3
20220624193508 91 131 2.0 4.0 0.00 0.00 0.00 58 1015.4
20220624193006 90 136 2.0 7.0 0.00 0.00 0.00 59 1015.4
20220624192505 91 138 2.0 7.0 0.00 0.00 0.00 57 1015.4
20220624192009 91 143 1.0 5.0 0.00 0.00 0.00 56 1015.4
20220624191506 91 132 2.0 5.0 0.00 0.00 0.00 57 1015.4
20220624191007 92 129 3.0 7.0 0.00 0.00 0.00 57 1015.4
20220624190508 92 141 3.0 8.0 0.00 0.00 0.00 58 1015.5
20220624190005 92 152 2.0 8.0 0.00 0.00 0.00 57 1015.5
20220624185506 92 171 1.0 5.0 0.00 0.00 0.00 56 1015.7
20220624185008 92 166 2.0 7.0 0.00 0.00 0.00 55 1015.7
20220624184506 92 158 2.0 7.0 0.00 0.00 0.00 54 1015.7
20220624184006 91 182 2.0 7.0 0.00 0.00 0.00 57 1015.8
20220624183508 91 214 2.0 6.0 0.00 0.00 0.00 59 1015.9
20220624183005 90 101 2.0 6.0 0.00 0.00 0.00 60 1015.8
20220624182506 91 132 2.0 9.0 0.00 0.00 0.00 59 1015.9
20220624182008 91 149 2.0 9.0 0.00 0.00 0.00 57 1016.0
20220624181505 91 167 1.0 6.0 0.00 0.00 0.00 54 1016.0
20220624181006 91 158 1.0 5.0 0.00 0.00 0.00 58 1016.1
20220624180508 91 144 2.0 5.0 0.00 0.00 0.00 58 1016.2
20220624180006 91 148 2.0 6.0 0.00 0.00 0.00 59 1016.3
20220624175505 91 153 2.0 6.0 0.00 0.00 0.00 61 1016.3
20220624175008 90 143 2.0 6.0 0.00 0.00 0.00 61 1016.4
20220624174505 90 126 1.0 5.0 0.00 0.00 0.00 60 1016.4
20220624174006 90 142 1.0 5.0 0.00 0.00 0.00 61 1016.4
20220624173508 90 153 1.0 5.0 0.00 0.00 0.00 61 1016.5
20220624173006 90 153 1.0 4.0 0.00 0.00 0.00 62 1016.5
20220624172506 90 153 1.0 6.0 0.00 0.00 0.00 62 1016.5
20220624172008 90 171 2.0 6.0 0.00 0.00 0.00 61 1016.6
20220624171505 90 197 1.0 5.0 0.00 0.00 0.00 61 1016.7
20220624171006 90 186 1.0 5.0 0.00 0.00 0.00 59 1016.7
20220624170509 90 180 1.0 5.0 0.00 0.00 0.00 63 1016.8
20220624170007 89 185 1.0 7.0 0.00 0.00 0.00 62 1016.8
20220624165507 88 158 2.0 7.0 0.00 0.00 0.00 63 1016.8
20220624165008 88 136 2.0 6.0 0.00 0.00 0.00 64 1016.8
20220624164505 88 134 2.0 6.0 0.00 0.00 0.00 64 1016.9
20220624164006 88 153 2.0 6.0 0.00 0.00 0.00 66 1016.8
20220624163509 87 160 2.0 6.0 0.00 0.00 0.00 66 1016.9
20220624163006 87 147 2.0 6.0 0.00 0.00 0.00 65 1016.9
20220624162507 87 134 2.0 8.0 0.00 0.00 0.00 64 1016.9
20220624162008 87 140 2.0 8.0 0.00 0.00 0.00 65 1016.9
20220624161505 87 153 2.0 8.0 0.00 0.00 0.00 64 1016.9
20220624161005 87 146 2.0 7.0 0.00 0.00 0.00 65 1016.7
20220624160509 87 153 2.0 10.0 0.00 0.00 0.00 67 1016.6
20220624160007 86 149 3.0 10.0 0.00 0.00 0.00 65 1016.6
20220624155506 86 154 3.0 10.0 0.00 0.00 0.00 66 1016.6
20220624155008 86 157 2.0 6.0 0.00 0.00 0.00 65 1016.6
20220624154506 86 146 2.0 6.0 0.00 0.00 0.00 65 1016.6
20220624154006 86 142 2.0 6.0 0.00 0.00 0.00 65 1016.6
20220624153508 85 139 3.0 6.0 0.00 0.00 0.00 65 1016.6
20220624153007 85 147 3.0 7.0 0.00 0.00 0.00 65 1016.6
20220624152507 85 160 2.0 7.0 0.00 0.00 0.00 64 1016.6
20220624152008 85 162 2.0 6.0 0.00 0.00 0.00 64 1016.6
20220624151506 85 158 2.0 8.0 0.00 0.00 0.00 65 1016.7
20220624151006 84 169 2.0 8.0 0.00 0.00 0.00 64 1016.7
20220624150508 84 178 2.0 6.0 0.00 0.00 0.00 65 1016.7
20220624150006 84 165 3.0 7.0 0.00 0.00 0.00 65 1016.8
20220624145506 83 154 3.0 8.0 0.00 0.00 0.00 65 1016.8
20220624145008 83 159 3.0 8.0 0.00 0.00 0.00 64 1016.8
20220624144506 83 158 2.0 8.0 0.00 0.00 0.00 65 1016.9
20220624144005 83 137 2.0 6.0 0.00 0.00 0.00 66 1016.9
20220624143508 82 132 3.0 7.0 0.00 0.00 0.00 66 1017.0
20220624143006 82 133 3.0 8.0 0.00 0.00 0.00 67 1017.0
20220624142506 82 137 3.0 8.0 0.00 0.00 0.00 67 1016.9
20220624142009 82 139 3.0 7.0 0.00 0.00 0.00 67 1016.9
20220624141506 81 135 3.0 7.0 0.00 0.00 0.00 67 1017.0
20220624141007 81 140 2.0 6.0 0.00 0.00 0.00 68 1017.1
20220624140508 81 146 2.0 6.0 0.00 0.00 0.00 67 1017.0
20220624140007 80 139 2.0 6.0 0.00 0.00 0.00 68 1017.0
20220624135505 80 141 2.0 6.0 0.00 0.00 0.00 68 1016.9
20220624135009 79 151 2.0 7.0 0.00 0.00 0.00 68 1016.9
20220624134506 79 153 2.0 8.0 0.00 0.00 0.00 68 1016.9
20220624134006 78 144 1.0 8.0 0.00 0.00 0.00 68 1016.9
20220624133506 78 144 1.0 4.0 0.00 0.00 0.00 68 1016.9
20220624133006 77 142 2.0 4.0 0.00 0.00 0.00 68 1016.8
20220624132506 77 148 2.0 6.0 0.00 0.00 0.00 68 1016.7
20220624132008 77 148 2.0 6.0 0.00 0.00 0.00 68 1016.7
20220624131507 76 141 2.0 5.0 0.00 0.00 0.00 68 1016.7
20220624131006 76 142 1.0 5.0 0.00 0.00 0.00 68 1016.6
20220624130506 75 136 1.0 4.0 0.00 0.00 0.00 67 1016.6
20220624130006 75 136 1.0 5.0 0.00 0.00 0.00 67 1016.5
20220624125506 74 142 1.0 5.0 0.00 0.00 0.00 68 1016.5
20220624125008 74 135 1.0 4.0 0.00 0.00 0.00 67 1016.5
20220624124506 73 130 1.0 3.0 0.00 0.00 0.00 67 1016.5
20220624124006 73 132 1.0 4.0 0.00 0.00 0.00 68 1016.5
20220624123506 72 132 1.0 4.0 0.00 0.00 0.00 68 1016.4
20220624123006 72 133 1.0 2.0 0.00 0.00 0.00 68 1016.5
20220624122506 72 131 1.0 3.0 0.00 0.00 0.00 68 1016.4
20220624122005 71 129 1.0 3.0 0.00 0.00 0.00 68 1016.4
20220624121506 71 129 1.0 3.0 0.00 0.00 0.00 68 1016.4
20220624121007 71 130 0.0 3.0 0.00 0.00 0.00 68 1016.3
20220624120506 71 132 1.0 3.0 0.00 0.00 0.00 69 1016.3
20220624120007 71 131 1.0 5.0 0.00 0.00 0.00 69 1016.3
20220624115506 70 131 1.0 5.0 0.00 0.00 0.00 69 1016.2
20220624115006 70 132 0.0 3.0 0.00 0.00 0.00 69 1016.2
20220624114506 70 130 0.0 3.0 0.00 0.00 0.00 69 1016.2
20220624114006 70 131 0.0 3.0 0.00 0.00 0.00 69 1016.2
20220624113507 70 132 0.0 3.0 0.00 0.00 0.00 69 1016.1
20220624113006 70 134 0.0 3.0 0.00 0.00 0.00 69 1016.1
20220624112506 70 124 0.0 1.0 0.00 0.00 0.00 69 1016.1
20220624112006 70 114 0.0 1.0 0.00 0.00 0.00 69 1016.1
20220624111505 69 111 0.0 1.0 0.00 0.00 0.00 69 1016.1
20220624111006 69 112 0.0 1.0 0.00 0.00 0.00 69 1016.1
20220624110506 69 112 0.0 1.0 0.00 0.00 0.00 69 1016.0
20220624110007 69 112 0.0 1.0 0.00 0.00 0.00 69 1016.0
20220624105507 69 112 0.0 1.0 0.00 0.00 0.00 69 1016.0
20220624105006 69 0 0.0 0.0 0.00 0.00 0.00 69 1015.9
20220624104506 69 0 0.0 0.0 0.00 0.00 0.00 69 1015.9
20220624104006 69 0 0.0 0.0 0.00 0.00 0.00 69 1015.8
20220624103506 69 108 0.0 1.0 0.00 0.00 0.00 69 1015.8
20220624103006 69 109 0.0 1.0 0.00 0.00 0.00 69 1015.8
20220624102506 69 111 0.0 1.0 0.00 0.00 0.00 69 1015.7
20220624102006 70 114 0.0 2.0 0.00 0.00 0.00 69 1015.6
20220624101505 70 114 0.0 2.0 0.00 0.00 0.00 69 1015.6
20220624101006 70 113 0.0 2.0 0.00 0.00 0.00 69 1015.7
20220624100505 70 115 0.0 2.0 0.00 0.00 0.00 69 1015.6
20220624100006 70 119 0.0 1.0 0.00 0.00 0.00 69 1015.6
20220624095506 70 121 0.0 1.0 0.00 0.00 0.00 70 1015.5
20220624095006 70 111 0.0 1.0 0.00 0.00 0.00 70 1015.6
20220624094508 70 120 0.0 1.0 0.00 0.00 0.00 69 1015.6
20220624094006 70 117 0.0 1.0 0.00 0.00 0.00 70 1015.5
20220624093506 70 108 0.0 1.0 0.00 0.00 0.00 69 1015.5
20220624093008 70 112 0.0 1.0 0.00 0.00 0.00 69 1015.5
20220624092506 70 111 0.0 1.0 0.00 0.00 0.00 69 1015.5
20220624092007 70 107 0.0 1.0 0.00 0.00 0.00 69 1015.4
20220624091508 70 104 0.0 1.0 0.00 0.00 0.00 69 1015.4
20220624091006 70 114 0.0 1.0 0.00 0.00 0.00 69 1015.4
20220624090506 70 113 0.0 1.0 0.00 0.00 0.00 69 1015.4
20220624090008 70 108 0.0 1.0 0.00 0.00 0.00 69 1015.3
20220624085506 70 113 0.0 1.0 0.00 0.00 0.00 69 1015.3
20220624085006 70 115 0.0 1.0 0.00 0.00 0.00 69 1015.3
20220624084508 70 113 0.0 1.0 0.00 0.00 0.00 69 1015.3
20220624084007 70 113 0.0 1.0 0.00 0.00 0.00 69 1015.3
20220624083506 70 114 0.0 1.0 0.00 0.00 0.00 69 1015.2
20220624083008 70 114 0.0 1.0 0.00 0.00 0.00 69 1015.2
20220624082505 70 116 0.0 1.0 0.00 0.00 0.00 69 1015.2
20220624082007 70 121 0.0 1.0 0.00 0.00 0.00 69 1015.2
20220624081508 70 124 0.0 1.0 0.00 0.00 0.00 69 1015.2
20220624081007 70 120 0.0 1.0 0.00 0.00 0.00 69 1015.1
20220624080506 70 117 0.0 1.0 0.00 0.00 0.00 69 1015.1
20220624080008 70 111 0.0 1.0 0.00 0.00 0.00 69 1015.0
20220624075505 70 128 0.0 2.0 0.00 0.00 0.00 69 1015.0
20220624075006 70 132 0.0 2.0 0.00 0.00 0.00 69 1015.0
20220624074508 70 123 0.0 1.0 0.00 0.00 0.00 69 1015.1
20220624074006 70 120 0.0 1.0 0.00 0.00 0.00 69 1015.0
20220624073506 70 120 0.0 1.0 0.00 0.00 0.00 69 1015.1
20220624073008 70 134 0.0 1.0 0.00 0.00 0.00 69 1015.1
20220624072506 70 131 0.0 1.0 0.00 0.00 0.00 69 1015.1
20220624072006 70 134 0.0 1.0 0.00 0.00 0.00 69 1015.1
20220624071509 70 131 0.0 1.0 0.00 0.00 0.00 69 1015.1
20220624071007 70 122 0.0 1.0 0.00 0.00 0.00 69 1015.1
20220624070506 71 126 0.0 1.0 0.00 0.00 0.00 69 1015.1
20220624070008 71 126 0.0 1.0 0.00 0.00 0.00 69 1015.1
20220624065505 71 126 0.0 1.0 0.00 0.00 0.00 69 1015.2
20220624065005 71 119 0.0 1.0 0.00 0.00 0.00 69 1015.2
20220624064509 71 119 0.0 2.0 0.00 0.00 0.00 69 1015.2
20220624064006 71 120 0.0 2.0 0.00 0.00 0.00 69 1015.2
20220624063506 71 120 0.0 2.0 0.00 0.00 0.00 69 1015.2
20220624063007 71 118 0.0 2.0 0.00 0.00 0.00 69 1015.3
20220624062506 71 117 0.0 1.0 0.00 0.00 0.00 69 1015.4
20220624062005 71 119 0.0 1.0 0.00 0.00 0.00 69 1015.5
20220624061508 71 121 0.0 1.0 0.00 0.00 0.00 69 1015.5
20220624061006 71 118 0.0 1.0 0.00 0.00 0.00 69 1015.5
20220624060506 71 114 0.0 1.0 0.00 0.00 0.00 69 1015.5
20220624060008 71 114 0.0 1.0 0.00 0.00 0.00 69 1015.5
20220624055506 70 119 0.0 1.0 0.00 0.00 0.00 69 1015.4
20220624055006 70 127 0.0 1.0 0.00 0.00 0.00 69 1015.4
20220624054506 70 132 0.0 1.0 0.00 0.00 0.00 67 1015.6
20220624054005 69 132 0.0 1.0 0.00 0.00 0.00 66 1015.7
20220624053506 69 132 0.0 1.0 0.00 0.00 0.00 65 1015.8
20220624053006 69 0 0.0 0.0 0.00 0.00 0.00 66 1015.9